DW9672 Weather Reports


Display with metric or nautical units.
time (UTC)temp
F
wind
direction
speed
MPH
gust
MPH
rain 1hr
in
rain 24hr
in
rain mn
in
humidity
%
barometer
mb
20260903093059 74 184 0.0 0.0 0.00 0.01 0.00 95 1014.3
20260903091542 74 184 0.0 0.0 0.00 0.01 0.00 95 1014.3
20260903090054 74 184 0.0 0.0 0.00 0.01 0.00 94 1014.3
20260903084524 74 184 0.0 0.0 0.00 0.01 0.00 95 1014.1
20260903083024 74 184 0.0 0.0 0.00 0.01 0.00 95 1014.2
20260903081512 74 184 0.0 0.0 0.00 0.01 0.00 96 1014.2
20260903080011 74 184 0.0 0.0 0.00 0.01 0.00 97 1014.2
20260903074510 74 184 0.0 0.0 0.00 0.01 0.00 97 1014.2
20260903073014 74 184 0.0 0.0 0.00 0.01 0.00 97 1014.1
20260903071508 75 184 0.0 0.0 0.00 0.01 0.00 97 1014.1
20260903070008 75 184 0.0 0.0 0.00 0.01 0.00 97 1014.1
20260903064506 75 183 0.0 0.0 0.00 0.01 0.00 97 1014.1
20260903063006 75 183 0.0 0.0 0.00 0.01 0.00 97 1014.2
20260903061547 75 183 0.0 0.0 0.00 0.01 0.00 97 1014.2
20260903060111 75 183 0.0 0.0 0.00 0.01 0.00 97 1014.1
20260903054534 75 183 0.0 0.0 0.00 0.01 0.00 97 1014.1
20260903053028 76 183 0.0 0.0 0.00 0.01 0.00 97 1014.1
20260903051510 76 183 0.0 0.0 0.00 0.01 0.00 96 1014.1
20260903050008 76 183 0.0 0.0 0.00 0.01 0.00 96 1014.0
20260903044549 76 183 0.0 0.0 0.00 0.01 0.00 96 1013.9
20260903043049 76 183 0.0 0.0 0.00 0.01 0.00 96 1013.9
20260903041537 76 183 0.0 0.0 0.00 0.01 0.00 96 1013.9
20260903040051 77 183 0.0 0.0 0.00 0.01 0.00 95 1013.8
20260903034534 77 183 0.0 0.0 0.00 0.01 0.01 95 1013.8
20260903033035 77 183 0.0 0.0 0.00 0.01 0.01 95 1013.8
20260903031534 78 183 0.0 0.0 0.00 0.01 0.01 95 1013.7
20260903030033 78 183 0.0 0.0 0.00 0.01 0.01 95 1013.7
20260903024532 78 183 0.0 0.0 0.00 0.01 0.01 94 1013.7
20260903023048 79 183 0.0 0.0 0.00 0.01 0.01 94 1013.6
20260903021519 79 183 0.0 0.0 0.00 0.01 0.01 93 1013.6
20260903020015 79 183 0.0 0.0 0.00 0.01 0.01 93 1013.5
20260903014614 80 183 0.0 0.0 0.00 0.01 0.01 92 1013.5
20260903013100 81 183 0.0 0.0 0.00 0.01 0.01 91 1013.4
20260903011556 81 183 0.0 0.0 0.00 0.01 0.01 90 1013.2
20260903010045 82 183 0.0 0.0 0.00 0.01 0.01 90 1013.1
20260903004541 83 183 0.0 0.0 0.00 0.01 0.01 88 1013.0
20260903003020 84 183 0.0 0.0 0.00 0.01 0.01 87 1013.0
20260903001529 86 183 0.0 0.0 0.00 0.01 0.01 85 1013.1
20260903000002 87 183 0.0 0.0 0.00 0.01 0.01 83 1013.2
20260902234501 89 183 0.0 0.0 0.01 0.01 0.01 78 1013.2
20260902233043 91 183 0.0 0.0 0.01 0.01 0.01 76 1013.3
20260902231545 92 183 0.0 0.0 0.01 0.01 0.01 72 1013.4
20260902230024 93 182 0.0 1.0 0.01 0.01 0.01 70 1013.4
20260902224523 93 182 0.0 0.0 0.01 0.01 0.01 69 1013.4
20260902223011 94 246 0.0 1.0 0.00 0.00 0.00 66 1013.5
20260902221505 94 222 0.0 1.0 0.00 0.00 0.00 66 1013.4
20260902220049 94 180 0.0 3.0 0.00 0.00 0.00 66 1013.5
20260902214547 94 202 0.0 3.0 0.00 0.00 0.00 65 1013.6
20260902213027 94 186 1.0 6.0 0.00 0.00 0.00 64 1013.6
20260902211535 95 225 1.0 5.0 0.00 0.00 0.00 63 1013.7
20260902210006 94 276 0.0 5.0 0.00 0.00 0.00 61 1013.8
20260902204506 94 167 0.0 7.0 0.00 0.00 0.00 61 1013.9
20260902203054 94 203 0.0 6.0 0.00 0.00 0.00 63 1013.9
20260902201553 94 246 0.0 6.0 0.00 0.00 0.00 63 1013.9
20260902200052 94 202 1.0 5.0 0.00 0.00 0.00 63 1014.1
20260902194549 94 164 1.0 5.0 0.00 0.00 0.00 62 1014.2
20260902193048 93 196 0.0 7.0 0.00 0.00 0.00 65 1014.3
20260902191549 93 189 1.0 6.0 0.00 0.00 0.00 64 1014.4
20260902190043 93 161 1.0 8.0 0.00 0.00 0.00 65 1014.6
20260902184540 92 226 0.0 7.0 0.00 0.00 0.00 64 1014.7
20260902183023 91 217 1.0 5.0 0.00 0.00 0.00 66 1014.7
20260902181518 91 224 2.0 6.0 0.00 0.00 0.00 67 1014.8
20260902180104 90 219 1.0 6.0 0.00 0.00 0.00 66 1014.9
20260902174603 90 165 1.0 6.0 0.00 0.00 0.00 69 1015.0
20260902173039 89 260 0.0 5.0 0.00 0.00 0.00 69 1015.0
20260902171545 88 258 0.0 5.0 0.00 0.00 0.00 70 1015.1
20260902170023 88 229 2.0 6.0 0.00 0.00 0.00 70 1015.3
20260902164521 88 254 3.0 6.0 0.00 0.00 0.00 71 1015.5
20260902163018 87 223 0.0 7.0 0.00 0.00 0.00 73 1015.5
20260902161534 87 228 0.0 8.0 0.00 0.00 0.00 73 1015.5
20260902160016 87 360 1.0 6.0 0.00 0.00 0.00 74 1015.6
20260902154514 86 296 1.0 5.0 0.00 0.00 0.00 73 1015.4
20260902153010 86 199 1.0 4.0 0.00 0.00 0.00 74 1015.4
20260902151512 85 213 0.0 5.0 0.00 0.00 0.00 74 1015.2
20260902150049 85 238 1.0 5.0 0.00 0.00 0.00 76 1015.1
20260902144546 84 217 0.0 4.0 0.00 0.00 0.00 78 1015.2
20260902143026 83 278 0.0 5.0 0.00 0.00 0.00 80 1015.3
20260902141527 82 221 0.0 3.0 0.00 0.00 0.00 81 1015.3
20260902140005 81 265 1.0 4.0 0.00 0.00 0.00 82 1015.5
20260902134602 80 246 0.0 3.0 0.00 0.00 0.00 84 1015.5
20260902133039 79 178 0.0 7.0 0.00 0.00 0.00 85 1015.6
20260902131538 78 178 0.0 3.0 0.00 0.00 0.00 85 1015.6
20260902130017 77 211 0.0 0.0 0.00 0.00 0.00 88 1015.7
20260902124527 75 210 0.0 0.0 0.00 0.00 0.00 91 1015.7
20260902123059 73 211 0.0 0.0 0.00 0.00 0.00 94 1015.8
20260902121607 72 215 0.0 0.0 0.00 0.00 0.00 96 1015.7
20260902120036 72 215 0.0 0.0 0.00 0.00 0.00 96 1015.6
20260902114603 72 215 0.0 0.0 0.00 0.00 0.00 96 1015.6
20260902113018 72 215 0.0 0.0 0.00 0.00 0.00 96 1015.5
20260902111519 72 215 0.0 0.0 0.00 0.00 0.00 96 1015.6
20260902104558 72 215 0.0 0.0 0.00 0.00 0.00 96 1015.7
20260902103049 72 215 0.0 0.0 0.00 0.00 0.00 95 1015.4
20260902101543 72 215 0.0 0.0 0.00 0.00 0.00 95 1015.4
20260902100042 73 215 0.0 0.0 0.00 0.00 0.00 95 1015.5
20260902094540 73 215 0.0 0.0 0.00 0.00 0.00 94 1015.4